• In Belarus
  • List of Countries
  • For 7 days
  • Water Temperature
  • Satellite Maps
  • Weather Map
  • Weather Widgets
  • user-avatar
    Login

    Hourly Weather Krasnaya Gorka

    Today, 19 September, Wednesday

    Time Temperature Precipitation Wind Pressure Humidity
    00:00 +10°C° 0 mm 3 mps 749 mmHg 92%
    01:00 +10°C° 0 mm 2 mps 749 mmHg 93%
    02:00 +10°C° 0 mm 2 mps 749 mmHg 94%
    03:00 +9°C° 0 mm 2 mps 749 mmHg 94%
    04:00 +9°C° 0 mm 2 mps 749 mmHg 94%
    05:00 +9°C° 0 mm 2 mps 750 mmHg 94%
    06:00 +11°C° 0 mm 3 mps 749 mmHg 89%
    07:00 +12°C° 0 mm 3 mps 749 mmHg 84%
    08:00 +13°C° 0 mm 4 mps 750 mmHg 78%
    09:00 +15°C° 0 mm 4 mps 750 mmHg 72%
    10:00 +17°C° 0 mm 5 mps 749 mmHg 67%
    11:00 +20°C° 0 mm 5 mps 749 mmHg 61%
    12:00 +20°C° 0 mm 5 mps 749 mmHg 61%
    13:00 +21°C° 0 mm 5 mps 749 mmHg 60%
    14:00 +22°C° 0 mm 5 mps 749 mmHg 59%
    15:00 +21°C° 0 mm 5 mps 749 mmHg 64%
    16:00 +20°C° 0 mm 4 mps 748 mmHg 68%
    17:00 +20°C° 0 mm 3 mps 748 mmHg 73%
    18:00 +19°C° 0 mm 3 mps 748 mmHg 76%
    19:00 +17°C° 0 mm 4 mps 748 mmHg 79%
    20:00 +15°C° 0 mm 4 mps 748 mmHg 82%
    21:00 +15°C° 0 mm 4 mps 748 mmHg 85%
    22:00 +16°C° 0 mm 3 mps 748 mmHg 87%
    23:00 +14°C° 0 mm 3 mps 748 mmHg 90%

    Tomorrow, 20 September, Thursday

    Time Temperature Precipitation Wind Pressure Humidity
    00:00 +14°C° 0 mm 3 mps 748 mmHg 91%
    01:00 +14°C° 0 mm 3 mps 748 mmHg 92%
    02:00 +14°C° 0 mm 3 mps 748 mmHg 93%
    03:00 +14°C° 0 mm 3 mps 748 mmHg 94%
    04:00 +13°C° 0 mm 3 mps 748 mmHg 94%
    05:00 +13°C° 0 mm 3 mps 748 mmHg 95%
    06:00 +15°C° 0 mm 4 mps 748 mmHg 90%
    07:00 +17°C° 0 mm 4 mps 748 mmHg 86%
    08:00 +18°C° 0 mm 4 mps 748 mmHg 82%
    09:00 +20°C° 0 mm 5 mps 748 mmHg 76%
    10:00 +21°C° 0 mm 5 mps 748 mmHg 71%
    11:00 +23°C° 0 mm 5 mps 748 mmHg 65%
    12:00 +25°C° 0 mm 5 mps 748 mmHg 63%
    13:00 +25°C° 0 mm 5 mps 748 mmHg 60%
    14:00 +26°C° 0 mm 5 mps 748 mmHg 58%
    15:00 +25°C° 0 mm 4 mps 748 mmHg 63%
    16:00 +22°C° 0 mm 4 mps 748 mmHg 68%
    17:00 +21°C° 0 mm 3 mps 748 mmHg 72%
    18:00 +20°C° 0 mm 3 mps 748 mmHg 76%
    19:00 +19°C° 0 mm 2 mps 748 mmHg 80%
    20:00 +17°C° 0 mm 2 mps 749 mmHg 83%
    21:00 +17°C° 0 mm 2 mps 749 mmHg 85%
    22:00 +16°C° 0 mm 2 mps 749 mmHg 87%
    23:00 +16°C° 0 mm 2 mps 749 mmHg 89%

    Day after tomorrow, 21 September, Friday

    Time Temperature Precipitation Wind Pressure Humidity
    00:00 +15°C° 0 mm 2 mps 749 mmHg 89%
    01:00 +15°C° 0 mm 1 mps 749 mmHg 90%
    02:00 +15°C° 0 mm 1 mps 750 mmHg 91%
    03:00 +14°C° 0 mm 1 mps 750 mmHg 91%
    04:00 +14°C° 0 mm 1 mps 750 mmHg 91%
    05:00 +14°C° 0 mm 1 mps 750 mmHg 92%
    06:00 +15°C° 0 mm 1 mps 750 mmHg 87%
    07:00 +18°C° 0 mm 1 mps 751 mmHg 82%
    08:00 +19°C° 0 mm 1 mps 751 mmHg 77%
    09:00 +20°C° 0 mm 1 mps 751 mmHg 71%
    10:00 +22°C° 0 mm 1 mps 751 mmHg 64%
    11:00 +24°C° 0 mm 1 mps 751 mmHg 58%
    12:00 +24°C° 0 mm 1 mps 751 mmHg 55%
    13:00 +25°C° 0 mm 1 mps 751 mmHg 51%
    14:00 +25°C° 0 mm 1 mps 751 mmHg 48%
    15:00 +24°C° 0 mm 1 mps 751 mmHg 53%
    16:00 +23°C° 0 mm 1 mps 751 mmHg 57%
    17:00 +20°C° 0 mm 0 mps 751 mmHg 61%
    18:00 +21°C° 0 mm 1 mps 751 mmHg 63%
    19:00 +20°C° 0 mm 1 mps 751 mmHg 65%
    20:00 +19°C° 0 mm 1 mps 751 mmHg 67%
    21:00 +19°C° 0 mm 1 mps 751 mmHg 69%
    22:00 +17°C° 0 mm 2 mps 751 mmHg 71%
    23:00 +17°C° 0 mm 2 mps 751 mmHg 72%

    22 September, Saturday

    Time Temperature Precipitation Wind Pressure Humidity
    00:00 +17°C° 0 mm 2 mps 751 mmHg 74%
    01:00 +16°C° 0 mm 2 mps 751 mmHg 75%
    02:00 +16°C° 0 mm 2 mps 751 mmHg 77%
    03:00 +15°C° 0 mm 2 mps 750 mmHg 78%
    04:00 +15°C° 0 mm 2 mps 750 mmHg 79%
    05:00 +14°C° 0 mm 3 mps 750 mmHg 80%
    06:00 +16°C° 0 mm 3 mps 750 mmHg 76%
    07:00 +18°C° 0 mm 3 mps 750 mmHg 72%
    08:00 +19°C° 0 mm 4 mps 750 mmHg 68%
    09:00 +21°C° 0 mm 4 mps 750 mmHg 64%
    10:00 +22°C° 0 mm 4 mps 750 mmHg 59%
    11:00 +25°C° 0 mm 5 mps 749 mmHg 55%
    12:00 +25°C° 0 mm 5 mps 749 mmHg 53%
    13:00 +26°C° 0 mm 5 mps 749 mmHg 51%
    14:00 +26°C° 0 mm 5 mps 748 mmHg 50%
    15:00 +25°C° 0 mm 4 mps 748 mmHg 55%
    16:00 +23°C° 0 mm 4 mps 748 mmHg 60%
    17:00 +22°C° 0 mm 3 mps 747 mmHg 65%
    18:00 +21°C° 0 mm 3 mps 747 mmHg 66%
    19:00 +20°C° 0 mm 3 mps 747 mmHg 67%
    20:00 +19°C° 0 mm 3 mps 747 mmHg 68%
    21:00 +19°C° 0 mm 4 mps 747 mmHg 67%
    22:00 +18°C° 0 mm 4 mps 746 mmHg 66%
    23:00 +18°C° 0 mm 4 mps 746 mmHg 64%

    23 September, Sunday

    Time Temperature Precipitation Wind Pressure Humidity
    00:00 +18°C° 0 mm 4 mps 746 mmHg 64%
    01:00 +18°C° 0 mm 4 mps 745 mmHg 63%
    02:00 +17°C° 0 mm 4 mps 745 mmHg 62%
    03:00 +17°C° 0 mm 4 mps 744 mmHg 62%
    04:00 +16°C° 0 mm 5 mps 744 mmHg 61%
    05:00 +16°C° 0 mm 5 mps 743 mmHg 61%
    06:00 +16°C° 0 mm 5 mps 743 mmHg 60%
    07:00 +17°C° 0 mm 6 mps 743 mmHg 60%
    08:00 +19°C° 0 mm 6 mps 742 mmHg 59%
    09:00 +20°C° 0 mm 6 mps 742 mmHg 57%
    10:00 +21°C° 0 mm 7 mps 741 mmHg 55%
    11:00 +22°C° 0 mm 7 mps 741 mmHg 53%
    12:00 +21°C° 0 mm 6 mps 741 mmHg 56%
    13:00 +21°C° 0 mm 6 mps 741 mmHg 59%
    14:00 +20°C° 0 mm 5 mps 741 mmHg 63%
    15:00 +16°C° 1.3 mm 6 mps 741 mmHg 71%
    16:00 +12°C° 1.3 mm 7 mps 741 mmHg 79%
    17:00 +9°C° 1.3 mm 7 mps 742 mmHg 87%
    18:00 +9°C° 0.9 mm 7 mps 742 mmHg 87%
    19:00 +9°C° 0.9 mm 7 mps 743 mmHg 86%
    20:00 +9°C° 0.9 mm 6 mps 744 mmHg 86%
    21:00 +9°C° 0 mm 6 mps 744 mmHg 86%
    22:00 +9°C° 0 mm 5 mps 744 mmHg 87%
    23:00 +8°C° 0 mm 5 mps 745 mmHg 88%

    24 September, Monday

    Time Temperature Precipitation Wind Pressure Humidity
    00:00 +8°C° 0 mm 5 mps 745 mmHg 90%
    01:00 +8°C° 0 mm 4 mps 745 mmHg 91%
    02:00 +7°C° 0 mm 4 mps 746 mmHg 93%
    03:00 +7°C° 0 mm 4 mps 746 mmHg 93%
    04:00 +8°C° 0 mm 3 mps 746 mmHg 94%
    05:00 +7°C° 0 mm 3 mps 747 mmHg 95%
    06:00 +8°C° 0 mm 3 mps 747 mmHg 91%
    07:00 +9°C° 0 mm 3 mps 747 mmHg 87%
    08:00 +10°C° 0 mm 3 mps 748 mmHg 83%
    09:00 +12°C° 0 mm 3 mps 748 mmHg 75%
    10:00 +13°C° 0 mm 3 mps 748 mmHg 67%
    11:00 +16°C° 0 mm 3 mps 749 mmHg 59%
    12:00 +16°C° 0 mm 3 mps 748 mmHg 56%
    13:00 +17°C° 0 mm 3 mps 748 mmHg 52%
    14:00 +17°C° 0 mm 2 mps 748 mmHg 49%
    15:00 +16°C° 0 mm 2 mps 748 mmHg 53%
    16:00 +15°C° 0 mm 2 mps 748 mmHg 57%
    17:00 +14°C° 0 mm 2 mps 748 mmHg 62%
    18:00 +14°C° 0 mm 2 mps 748 mmHg 62%
    19:00 +13°C° 0 mm 2 mps 748 mmHg 63%
    20:00 +11°C° 0 mm 3 mps 748 mmHg 64%
    21:00 +11°C° 0 mm 3 mps 748 mmHg 64%
    22:00 +11°C° 0 mm 3 mps 748 mmHg 65%
    23:00 +10°C° 0 mm 3 mps 748 mmHg 65%
    Show more